Location: Walnut Point State Park
(39.6958°N, 88.0345°W)
Time: 08:57:52
(UTC-05:00)

Cosmos 1833 Rocket - Visible Passes

Search period start: 30 August 2015 00:00
Search period end: 09 September 2015 00:00
Orbit: 831 x 841 km, 71.0° (Epoch: 29 August)

Date Brightness Start Highest point End Pass type
(mag) Time Alt. Az. Time Alt. Az. Time Alt. Az.
30 Aug 5.8 21:01:23 10° W 21:02:11 10° W 21:02:35 10° WSW visible
31 Aug 5.7 20:43:41 10° WNW 20:45:36 11° W 20:47:08 10° WSW visible
01 Sep 5.6 20:26:28 10° WNW 20:29:00 13° W 20:31:10 10° WSW visible
02 Sep 5.6 20:09:26 10° WNW 20:12:24 14° W 20:15:03 10° SW visible
03 Sep 5.5 19:52:28 10° WNW 19:55:48 16° W 19:58:50 10° SW visible
